World > North America > United States > North Carolina

Raleigh, North Carolina Regional Weather

Lat: 35.82N, Lon: 78.66W
Wx Zone: NCZ041
Feedback

Raleigh, NC Regional Weather

Expires:201908250300;;162370
ASUS42 KRAH 250210
RWRRAH
NORTH CAROLINA WEATHER ROUNDUP
NATIONAL WEATHER SERVICE RALEIGH NC
1000 PM EDT SAT AUG 24 2019

NOTE: "FAIR" INDICATES FEW OR NO CLOUDS BELOW 12,000 FEET WITH NO
SIGNIFICANT WEATHER AND/OR OBSTRUCTIONS TO VISIBILITY.


NCZ021-022-025-041-071-084-088-250300-
CENTRAL NORTH CAROLINA
  
CITY           SKY/WX    TMP DP  RH WIND       PRES   REMARKS
CHARLOTTE      CLOUDY    65  60  84 NE13      30.18R                  
GREENSBORO     CLOUDY    61  61 100 E7        30.20R                  
WINSTON-SALEM  CLOUDY    62  59  90 E7        30.21R                  
RALEIGH-DURHAM CLOUDY    64  61  90 NE3       30.17R                  
FORT BRAGG     FAIR      64  64 100 N6        30.13R                  
FAYETTEVILLE   CLOUDY    66  66 100 NE13      30.12R FOG              
BURLINGTON     CLOUDY    64  60  87 NE5       30.19R                  
ROXBORO        CLOUDY    61  59  94 NE6       30.21R                  
HENDERSON      NOT AVBL                                               
LOUISBURG      CLOUDY    63  61  94 E3        30.19R                  
LAURINBURG     CLOUDY    67  64  90 NE14      30.13R FOG              
$$
 

SKY/WX - Weather  TMP - Temperature  DP - Dew Point  RH - Relative Humidity
WIND - Wind Direction/Speed PRES - Barometric Pressure VSB - Visibility
WCI - Wind Chill Index E13G22 Wind - East Wind 13 mph/Gusts of 22 mph